EW2826 Weather Reports


time (UTC)temp
C
wind
direction
speed
KPH
gust
KPH
rain 1hr
cm
rain 24hr
cm
rain mn
cm
humidity
%
barometer
mb
20260505024003 20 64 8.0 12.9 0.00 0.00 0.00 50 1027.3
20260505023003 19 10 4.8 9.7 0.00 0.00 0.00 51 1027.3
20260505022002 20 21 4.8 9.7 0.00 0.00 0.00 50 1027.3
20260505021002 19 17 3.2 4.8 0.00 0.00 0.00 51 1027.4
20260505020002 18 25 3.2 4.8 0.00 0.00 0.00 53 1027.4
20260505015002 18 72 3.2 4.8 0.00 0.00 0.00 55 1027.4
20260505014002 18 59 3.2 4.8 0.00 0.00 0.00 55 1027.4
20260505013023 18 43 3.2 4.8 0.00 0.00 0.00 55 1027.5
20260505012003 17 88 3.2 9.7 0.00 0.00 0.00 57 1027.5
20260505011024 17 98 3.2 9.7 0.00 0.00 0.00 58 1027.5
20260505010003 17 63 4.8 8.0 0.00 0.00 0.00 59 1027.6
20260505005002 16 82 3.2 8.0 0.00 0.00 0.00 60 1027.7
20260505004002 16 31 3.2 4.8 0.00 0.00 0.00 61 1027.6
20260505003002 15 56 4.8 11.3 0.00 0.00 0.00 62 1027.5
20260505002002 15 82 3.2 8.0 0.00 0.00 0.00 65 1027.4
20260505001002 14 72 3.2 8.0 0.00 0.00 0.00 67 1027.1
20260505000024 13 79 6.4 9.7 0.00 0.00 0.00 68 1026.9
20260504235002 13 83 8.0 12.9 0.00 0.00 0.00 69 1026.9
20260504234002 13 65 4.8 8.0 0.00 0.00 0.00 71 1026.8
20260504233001 12 35 4.8 12.9 0.00 0.00 0.00 73 1026.7
20260504232002 12 102 6.4 19.3 0.00 0.00 0.00 75 1026.6
20260504231002 12 6 4.8 9.7 0.00 0.00 0.00 74 1026.6
20260504230002 12 71 1.6 4.8 0.00 0.00 0.00 71 1026.5
20260504225002 13 80 4.8 12.9 0.00 0.00 0.00 71 1026.3
20260504224002 13 5 4.8 12.9 0.00 0.00 0.00 71 1026.0
20260504223002 13 48 3.2 8.0 0.00 0.00 0.00 70 1026.0
20260504222002 13 103 4.8 11.3 0.00 0.00 0.00 70 1025.9
20260504220002 13 66 3.2 9.7 0.00 0.00 0.00 71 1025.8
20260504215002 13 23 3.2 9.7 0.00 0.00 0.00 70 1025.7
20260504214002 13 79 4.8 8.0 0.00 0.00 0.00 70 1025.6
20260504213002 13 16 3.2 9.7 0.00 0.00 0.00 70 1025.7
20260504212002 13 68 6.4 14.5 0.00 0.00 0.00 70 1025.8
20260504211002 13 88 8.0 14.5 0.00 0.00 0.00 70 1025.9
20260504210003 13 76 4.8 9.7 0.00 0.00 0.00 70 1025.9
20260504205002 13 67 4.8 11.3 0.00 0.00 0.00 70 1025.9
20260504204002 13 88 3.2 8.0 0.00 0.00 0.00 69 1026.0
20260504203002 13 1 3.2 9.7 0.00 0.00 0.00 70 1025.9
20260504202003 13 41 8.0 14.5 0.00 0.00 0.00 69 1025.8
20260504201002 13 35 4.8 11.3 0.00 0.00 0.00 69 1025.8
20260504200002 13 91 4.8 11.3 0.00 0.00 0.00 69 1025.9
20260504194002 14 17 3.2 4.8 0.00 0.00 0.00 69 1025.9
20260504193003 14 69 4.8 8.0 0.00 0.00 0.00 68 1025.9
20260504192024 14 20 4.8 9.7 0.00 0.00 0.00 68 1025.9
20260504191002 14 66 4.8 9.7 0.00 0.00 0.00 68 1026.0
20260504190003 14 73 8.0 12.9 0.00 0.00 0.00 68 1026.1
20260504185002 15 100 1.6 4.8 0.00 0.00 0.00 67 1026.2
20260504184002 15 24 4.8 8.0 0.00 0.00 0.00 66 1026.2
20260504183002 15 33 4.8 8.0 0.00 0.00 0.00 66 1026.1
20260504181002 15 102 3.2 8.0 0.00 0.00 0.00 67 1026.1
20260504180002 14 79 4.8 8.0 0.00 0.00 0.00 68 1026.1
20260504175023 14 72 3.2 11.3 0.00 0.00 0.00 67 1026.3
20260504174003 14 95 3.2 9.7 0.00 0.00 0.00 67 1026.3
20260504173002 15 162 1.6 4.8 0.00 0.00 0.00 67 1026.2
20260504172002 15 232 1.6 3.2 0.00 0.00 0.00 65 1026.2
20260504171003 15 129 6.4 12.9 0.00 0.00 0.00 64 1026.3
20260504151003 15 128 3.2 9.7 0.00 0.00 0.00 65 1026.7
20260504141002 13 97 6.4 9.7 0.00 0.00 0.00 71 1026.9
20260504082002 21 179 1.6 4.8 0.00 0.00 0.00 52 1025.4
20260504081007 21 138 3.2 3.2 0.00 0.00 0.00 46 1025.5
20260504050023 21 168 3.2 4.8 0.00 0.00 0.00 49 1026.6
20260504045002 20 177 1.6 3.2 0.00 0.00 0.00 49 1026.7
20260504044003 20 132 4.8 9.7 0.00 0.00 0.00 49 1026.8
20260504043002 20 120 3.2 4.8 0.00 0.00 0.00 51 1027.0
20260504042003 20 20 4.8 11.3 0.00 0.00 0.00 51 1027.1
20260504041002 20 41 1.6 9.7 0.00 0.00 0.00 53 1027.3
20260504040002 20 86 4.8 11.3 0.00 0.00 0.00 52 1027.6
20260504035002 19 70 6.4 12.9 0.00 0.00 0.00 52 1027.8
20260504034002 19 101 4.8 11.3 0.00 0.00 0.00 53 1027.9
20260504033002 19 82 3.2 8.0 0.00 0.00 0.00 55 1028.1
20260504032007 18 108 6.4 12.9 0.00 0.00 0.00 55 1028.2
20260504031002 18 75 6.4 9.7 0.00 0.00 0.00 55 1028.2
20260504030002 18 85 8.0 14.5 0.00 0.00 0.00 55 1028.4
20260504025002 18 33 9.7 20.9 0.00 0.00 0.00 56 1028.5